Starlink 5661

operational
NORAD ID: 55343 Int'l Des: 2023-013 Owner: SPXS Country: US Constellation: starlink
LEOCIRCULAR

Über Starlink 5661

Beschreibung wird geladen...

Live-Position

3D-Globus wird geladen...

Nächste Überflüge

Höhenverlauf

Altitude vs Time

uPlot chart will show altitude changes over time

Zweizeiliger Elementsatz

1 55343U 23013N 25354.08321462 .00002395 00000-0 19244-3 0 9996
2 55343 43.0053 12.9673 0000649 266.6413 93.4355 15.02512467159739
Epoch: 20. Dez. 2025 • Age: 7 hours

Aktueller Status

Höhe 562.6 km
Geschwindigkeit 7.59 km/s
Subsatellitenpunkt 42.40°N, 106.88°W
Startdatum 26. Jan. 2023
Alter 2.8 years
Typ internet

Technische Details

Klassifizierung Payload
Masse 305.00 kg
Trockenmasse 290.00 kg
Gesamtmasse 305.00 kg
Länge 0.20 m
Durchmesser 2.80 m
Spannweite 9.00 m
Form Box + pan
Hersteller SPXS
Bus-Typ Starlink
Phasenstatus In Orbit
Besitzer/Staat SPXS/US

Große Konstellationen

Loading constellations...